| time (UTC) | temp C | wind direction | speed KPH | gust KPH | rain 1hr cm | rain 24hr cm | rain mn cm | humidity % | barometer mb |
| 20260506092444 | 13 | 0 | 0.0 | 17.7 | 0.00 | 0.00 | 0.00 | 57 | 958.8 |
| 20260506091943 | 13 | 258 | 0.0 | 17.7 | 0.00 | 0.00 | 0.00 | 56 | 958.9 |
| 20260506091442 | 13 | 256 | 0.0 | 17.7 | 0.00 | 0.00 | 0.00 | 55 | 959.1 |
| 20260506090941 | 13 | 226 | 0.0 | 17.7 | 0.00 | 0.00 | 0.00 | 55 | 958.9 |
| 20260506090440 | 13 | 225 | 0.0 | 17.7 | 0.00 | 0.00 | 0.00 | 54 | 959.0 |
| 20260506085939 | 14 | 249 | 0.0 | 17.7 | 0.00 | 0.00 | 0.00 | 53 | 959.2 |
| 20260506085438 | 14 | 272 | 0.0 | 17.7 | 0.00 | 0.00 | 0.00 | 52 | 959.2 |
| 20260506084937 | 14 | 279 | 0.0 | 17.7 | 0.00 | 0.00 | 0.00 | 52 | 959.2 |
| 20260506084436 | 14 | 292 | 1.6 | 17.7 | 0.00 | 0.00 | 0.00 | 52 | 959.1 |
| 20260506083419 | 15 | 252 | 0.0 | 17.7 | 0.00 | 0.00 | 0.00 | 51 | 959.1 |
| 20260506082402 | 15 | 229 | 0.0 | 17.7 | 0.00 | 0.00 | 0.00 | 51 | 958.8 |
| 20260506081901 | 15 | 199 | 0.0 | 17.7 | 0.00 | 0.00 | 0.00 | 51 | 959.2 |
| 20260506081400 | 15 | 189 | 0.0 | 17.7 | 0.00 | 0.00 | 0.00 | 51 | 959.2 |
| 20260506080859 | 15 | 240 | 1.6 | 17.7 | 0.00 | 0.00 | 0.00 | 51 | 959.2 |
| 20260506080358 | 15 | 227 | 0.0 | 17.7 | 0.00 | 0.00 | 0.00 | 50 | 959.4 |
| 20260506073337 | 15 | 282 | 0.0 | 17.7 | 0.00 | 0.00 | 0.00 | 50 | 959.4 |
| 20260506072321 | 15 | 290 | 0.0 | 17.7 | 0.00 | 0.00 | 0.00 | 50 | 959.3 |
| 20260506071820 | 15 | 335 | 0.0 | 17.7 | 0.00 | 0.00 | 0.00 | 50 | 959.3 |
| 20260506070803 | 15 | 291 | 0.0 | 17.7 | 0.00 | 0.00 | 0.00 | 50 | 959.3 |
| 20260506070302 | 15 | 307 | 0.0 | 17.7 | 0.00 | 0.00 | 0.00 | 50 | 959.4 |
| 20260506062239 | 16 | 294 | 0.0 | 17.7 | 0.00 | 0.00 | 0.33 | 48 | 958.9 |
| 20260506061738 | 16 | 258 | 0.0 | 17.7 | 0.00 | 0.00 | 0.33 | 48 | 959.2 |
| 20260506060721 | 16 | 259 | 1.6 | 17.7 | 0.00 | 0.00 | 0.33 | 46 | 959.2 |
| 20260506060220 | 16 | 201 | 0.0 | 17.7 | 0.00 | 0.00 | 0.33 | 46 | 959.1 |
| 20260506051155 | 17 | 246 | 1.6 | 17.7 | 0.00 | 0.00 | 0.33 | 42 | 958.8 |
| 20260506050655 | 18 | 243 | 0.0 | 17.7 | 0.00 | 0.00 | 0.33 | 42 | 958.9 |
| 20260506050153 | 18 | 212 | 1.6 | 17.7 | 0.00 | 0.00 | 0.33 | 42 | 958.7 |
| 20260506044650 | 18 | 245 | 1.6 | 17.7 | 0.00 | 0.00 | 0.33 | 41 | 958.8 |
| 20260506044149 | 18 | 253 | 4.8 | 17.7 | 0.00 | 0.00 | 0.33 | 42 | 958.5 |
| 20260506043649 | 18 | 234 | 1.6 | 17.7 | 0.00 | 0.00 | 0.33 | 45 | 958.2 |
| 20260506043148 | 18 | 240 | 3.2 | 17.7 | 0.00 | 0.00 | 0.33 | 46 | 958.4 |
| 20260506042131 | 18 | 224 | 4.8 | 17.7 | 0.00 | 0.00 | 0.33 | 47 | 958.3 |
| 20260506041630 | 18 | 258 | 6.4 | 17.7 | 0.00 | 0.00 | 0.33 | 47 | 958.4 |
| 20260506041129 | 18 | 241 | 6.4 | 17.7 | 0.00 | 0.00 | 0.33 | 47 | 958.2 |
| 20260506040628 | 18 | 258 | 3.2 | 17.7 | 0.00 | 0.00 | 0.33 | 46 | 957.9 |
| 20260506040127 | 18 | 271 | 1.6 | 17.7 | 0.00 | 0.00 | 0.33 | 45 | 958.2 |
| 20260506035626 | 18 | 278 | 3.2 | 17.7 | 0.00 | 0.00 | 0.33 | 43 | 958.1 |
| 20260506035126 | 18 | 264 | 0.0 | 17.7 | 0.00 | 0.00 | 0.33 | 41 | 957.9 |
| 20260506034625 | 19 | 251 | 1.6 | 17.7 | 0.00 | 0.00 | 0.33 | 41 | 957.8 |
| 20260506034123 | 19 | 245 | 1.6 | 17.7 | 0.00 | 0.00 | 0.33 | 40 | 957.5 |
| 20260506033622 | 19 | 253 | 3.2 | 17.7 | 0.00 | 0.00 | 0.33 | 39 | 957.6 |
| 20260506033121 | 19 | 251 | 0.0 | 17.7 | 0.00 | 0.00 | 0.33 | 39 | 957.6 |
| 20260506032104 | 19 | 266 | 0.0 | 17.7 | 0.00 | 0.00 | 0.33 | 38 | 957.3 |
| 20260506031603 | 19 | 253 | 1.6 | 17.7 | 0.00 | 0.00 | 0.33 | 38 | 957.3 |
| 20260506031102 | 19 | 276 | 1.6 | 17.7 | 0.00 | 0.00 | 0.33 | 38 | 957.3 |
| 20260506030602 | 20 | 230 | 1.6 | 17.7 | 0.00 | 0.00 | 0.33 | 37 | 957.3 |
| 20260506025600 | 20 | 236 | 3.2 | 17.7 | 0.00 | 0.00 | 0.33 | 36 | 957.0 |
| 20260506025100 | 20 | 232 | 4.8 | 17.7 | 0.00 | 0.00 | 0.33 | 36 | 957.2 |
| 20260506024558 | 20 | 231 | 1.6 | 17.7 | 0.00 | 0.00 | 0.33 | 35 | 956.9 |
| 20260506024057 | 20 | 233 | 3.2 | 17.7 | 0.00 | 0.00 | 0.33 | 35 | 956.7 |
| 20260506023557 | 20 | 246 | 1.6 | 17.7 | 0.00 | 0.00 | 0.33 | 34 | 956.7 |
| 20260506023057 | 20 | 238 | 1.6 | 17.7 | 0.00 | 0.00 | 0.33 | 34 | 956.7 |
| 20260506022040 | 20 | 225 | 1.6 | 17.7 | 0.00 | 0.00 | 0.33 | 33 | 956.5 |
| 20260506021539 | 20 | 231 | 4.8 | 17.7 | 0.00 | 0.00 | 0.33 | 32 | 956.3 |
| 20260506020523 | 21 | 220 | 3.2 | 17.7 | 0.00 | 0.00 | 0.33 | 31 | 956.2 |
| 20260506020022 | 21 | 222 | 4.8 | 17.7 | 0.00 | 0.00 | 0.33 | 32 | 956.4 |
| 20260506015521 | 21 | 244 | 4.8 | 17.7 | 0.00 | 0.00 | 0.33 | 32 | 956.2 |
| 20260506015020 | 21 | 236 | 6.4 | 20.9 | 0.00 | 0.00 | 0.33 | 31 | 956.1 |
| 20260506014519 | 21 | 230 | 4.8 | 20.9 | 0.00 | 0.00 | 0.33 | 32 | 956.2 |
| 20260506013504 | 21 | 235 | 6.4 | 22.5 | 0.00 | 0.00 | 0.33 | 32 | 956.1 |
| 20260506013003 | 22 | 236 | 4.8 | 22.5 | 0.00 | 0.00 | 0.33 | 33 | 956.1 |
| 20260506012502 | 22 | 237 | 8.0 | 22.5 | 0.00 | 0.00 | 0.33 | 32 | 956.1 |
| 20260506012000 | 22 | 234 | 8.0 | 20.9 | 0.00 | 0.00 | 0.33 | 32 | 956.1 |
| 20260506011500 | 22 | 237 | 6.4 | 19.3 | 0.00 | 0.00 | 0.33 | 32 | 956.1 |
| 20260506010959 | 22 | 257 | 8.0 | 19.3 | 0.00 | 0.00 | 0.33 | 32 | 956.1 |
| 20260506010458 | 22 | 232 | 4.8 | 24.1 | 0.00 | 0.00 | 0.33 | 31 | 955.9 |
| 20260506005957 | 22 | 238 | 9.7 | 24.1 | 0.00 | 0.00 | 0.33 | 30 | 955.8 |
| 20260506005456 | 23 | 232 | 8.0 | 19.3 | 0.00 | 0.00 | 0.33 | 29 | 955.8 |
| 20260506004955 | 23 | 218 | 4.8 | 19.3 | 0.00 | 0.00 | 0.33 | 30 | 955.3 |
| 20260506004454 | 23 | 240 | 6.4 | 19.3 | 0.00 | 0.00 | 0.33 | 29 | 955.8 |
| 20260506003437 | 23 | 229 | 8.0 | 19.3 | 0.00 | 0.00 | 0.33 | 27 | 955.9 |
| 20260506002936 | 23 | 224 | 4.8 | 19.3 | 0.00 | 0.00 | 0.33 | 28 | 955.6 |
| 20260506002435 | 23 | 235 | 4.8 | 19.3 | 0.00 | 0.00 | 0.33 | 28 | 955.8 |
| 20260506001934 | 23 | 222 | 6.4 | 19.3 | 0.00 | 0.00 | 0.33 | 27 | 955.6 |
| 20260506000917 | 24 | 236 | 6.4 | 19.3 | 0.00 | 0.00 | 0.33 | 27 | 955.4 |
| 20260506000416 | 24 | 225 | 4.8 | 19.3 | 0.00 | 0.00 | 0.33 | 27 | 955.5 |
| 20260505235915 | 24 | 224 | 6.4 | 19.3 | 0.00 | 0.00 | 0.33 | 25 | 955.5 |
| 20260505235414 | 23 | 220 | 6.4 | 19.3 | 0.00 | 0.00 | 0.33 | 26 | 955.6 |
| 20260505234913 | 24 | 230 | 6.4 | 19.3 | 0.00 | 0.00 | 0.33 | 27 | 955.6 |
| 20260505234412 | 24 | 217 | 3.2 | 19.3 | 0.00 | 0.00 | 0.33 | 27 | 955.3 |
| 20260505233911 | 24 | 215 | 4.8 | 19.3 | 0.00 | 0.00 | 0.33 | 25 | 955.5 |
| 20260505233410 | 24 | 232 | 6.4 | 19.3 | 0.00 | 0.00 | 0.33 | 26 | 955.4 |
| 20260505232909 | 24 | 220 | 4.8 | 19.3 | 0.00 | 0.00 | 0.33 | 26 | 955.5 |
| 20260505232408 | 24 | 220 | 4.8 | 20.9 | 0.00 | 0.00 | 0.33 | 27 | 955.3 |
| 20260505231351 | 24 | 238 | 6.4 | 19.3 | 0.00 | 0.00 | 0.33 | 26 | 955.5 |
| 20260505230850 | 24 | 225 | 8.0 | 19.3 | 0.00 | 0.00 | 0.33 | 26 | 955.4 |
| 20260505230349 | 25 | 240 | 4.8 | 17.7 | 0.00 | 0.00 | 0.33 | 26 | 955.4 |
| 20260505225332 | 23 | 210 | 6.4 | 17.7 | 0.00 | 0.00 | 0.33 | 29 | 955.5 |
| 20260505224315 | 23 | 218 | 4.8 | 17.7 | 0.00 | 0.00 | 0.33 | 30 | 955.9 |
| 20260505223814 | 23 | 210 | 4.8 | 17.7 | 0.00 | 0.00 | 0.33 | 30 | 955.5 |
| 20260505223313 | 24 | 209 | 3.2 | 17.7 | 0.00 | 0.00 | 0.33 | 30 | 956.1 |
| 20260505222812 | 24 | 276 | 3.2 | 17.7 | 0.00 | 0.00 | 0.33 | 31 | 955.9 |
| 20260505222311 | 23 | 235 | 4.8 | 17.7 | 0.00 | 0.00 | 0.33 | 30 | 955.8 |
| 20260505221810 | 23 | 209 | 6.4 | 17.7 | 0.00 | 0.00 | 0.33 | 30 | 955.7 |
| 20260505221309 | 23 | 229 | 6.4 | 17.7 | 0.00 | 0.00 | 0.33 | 31 | 955.8 |
| 20260505220808 | 24 | 213 | 4.8 | 17.7 | 0.00 | 0.00 | 0.33 | 30 | 956.2 |
| 20260505220307 | 24 | 196 | 6.4 | 17.7 | 0.00 | 0.00 | 0.33 | 29 | 956.2 |
| 20260505215806 | 25 | 225 | 4.8 | 17.7 | 0.00 | 0.00 | 0.33 | 29 | 956.3 |
| 20260505215305 | 24 | 230 | 6.4 | 17.7 | 0.00 | 0.00 | 0.33 | 28 | 956.0 |
| 20260505214804 | 24 | 229 | 4.8 | 17.7 | 0.00 | 0.00 | 0.33 | 30 | 956.3 |
| 20260505214303 | 24 | 221 | 6.4 | 19.3 | 0.00 | 0.00 | 0.33 | 29 | 956.3 |
| 20260505213802 | 24 | 217 | 6.4 | 19.3 | 0.00 | 0.00 | 0.33 | 30 | 956.6 |
| 20260505213301 | 24 | 223 | 8.0 | 19.3 | 0.00 | 0.00 | 0.33 | 29 | 956.3 |
| 20260505212244 | 24 | 224 | 6.4 | 19.3 | 0.00 | 0.00 | 0.33 | 28 | 956.6 |
| 20260505211743 | 24 | 221 | 6.4 | 20.9 | 0.00 | 0.00 | 0.33 | 27 | 956.3 |
| 20260505211242 | 24 | 218 | 8.0 | 20.9 | 0.00 | 0.00 | 0.33 | 28 | 956.5 |
| 20260505210741 | 24 | 210 | 8.0 | 20.9 | 0.00 | 0.00 | 0.33 | 27 | 956.5 |
| 20260505204652 | 24 | 221 | 8.0 | 20.9 | 0.00 | 0.00 | 0.33 | 30 | 956.8 |
| 20260505204151 | 24 | 218 | 8.0 | 19.3 | 0.00 | 0.00 | 0.33 | 32 | 956.9 |
| 20260505203650 | 24 | 210 | 8.0 | 19.3 | 0.00 | 0.00 | 0.33 | 33 | 956.4 |
| 20260505203149 | 24 | 219 | 8.0 | 19.3 | 0.00 | 0.00 | 0.33 | 30 | 956.9 |
| 20260505202648 | 24 | 224 | 8.0 | 19.3 | 0.00 | 0.00 | 0.33 | 31 | 956.7 |
| 20260505202147 | 24 | 223 | 9.7 | 19.3 | 0.00 | 0.00 | 0.33 | 31 | 956.7 |
| 20260505201130 | 23 | 232 | 4.8 | 19.3 | 0.00 | 0.00 | 0.33 | 34 | 956.9 |
| 20260505200629 | 24 | 228 | 6.4 | 19.3 | 0.00 | 0.00 | 0.33 | 36 | 957.1 |
| 20260505200128 | 23 | 222 | 6.4 | 19.3 | 0.00 | 0.00 | 0.33 | 36 | 956.9 |
| 20260505195627 | 23 | 230 | 8.0 | 19.3 | 0.00 | 0.00 | 0.33 | 36 | 956.7 |
| 20260505194610 | 22 | 225 | 4.8 | 19.3 | 0.00 | 0.00 | 0.33 | 43 | 957.1 |
| 20260505194109 | 21 | 330 | 1.6 | 19.3 | 0.00 | 0.00 | 0.33 | 52 | 957.2 |
| 20260505192536 | 21 | 335 | 3.2 | 19.3 | 0.00 | 0.00 | 0.33 | 53 | 957.3 |
| 20260505192035 | 21 | 11 | 0.0 | 19.3 | 0.00 | 0.00 | 0.33 | 53 | 957.3 |
| 20260505191534 | 21 | 0 | 3.2 | 19.3 | 0.00 | 0.00 | 0.33 | 51 | 957.1 |
| 20260505191033 | 21 | 314 | 1.6 | 19.3 | 0.00 | 0.00 | 0.33 | 50 | 957.5 |
| 20260505190532 | 21 | 338 | 1.6 | 19.3 | 0.00 | 0.00 | 0.33 | 51 | 957.4 |
| 20260505190031 | 21 | 60 | 1.6 | 19.3 | 0.00 | 0.00 | 0.33 | 52 | 957.1 |
| 20260505185014 | 21 | 11 | 3.2 | 19.3 | 0.00 | 0.00 | 0.33 | 53 | 957.5 |
| 20260505183957 | 20 | 15 | 3.2 | 19.3 | 0.00 | 0.00 | 0.33 | 55 | 957.7 |
| 20260505182940 | 20 | 32 | 0.0 | 19.3 | 0.00 | 0.00 | 0.33 | 57 | 957.7 |
| 20260505182439 | 20 | 13 | 0.0 | 19.3 | 0.00 | 0.00 | 0.33 | 54 | 958.0 |
| 20260505181422 | 20 | 217 | 1.6 | 19.3 | 0.00 | 0.00 | 0.33 | 57 | 958.1 |
| 20260505180921 | 20 | 225 | 0.0 | 19.3 | 0.00 | 0.00 | 0.33 | 58 | 958.0 |
| 20260505180420 | 20 | 210 | 1.6 | 19.3 | 0.00 | 0.00 | 0.33 | 59 | 958.4 |
| 20260505175919 | 20 | 239 | 0.0 | 19.3 | 0.00 | 0.00 | 0.33 | 57 | 958.2 |
| 20260505175418 | 20 | 277 | 0.0 | 19.3 | 0.00 | 0.00 | 0.33 | 58 | 958.4 |
| 20260505174917 | 20 | 205 | 0.0 | 19.3 | 0.00 | 0.00 | 0.33 | 57 | 958.2 |
| 20260505174416 | 20 | 234 | 1.6 | 19.3 | 0.00 | 0.00 | 0.33 | 57 | 958.3 |
| 20260505173915 | 20 | 259 | 0.0 | 19.3 | 0.00 | 0.00 | 0.33 | 62 | 958.2 |
| 20260505173414 | 20 | 130 | 1.6 | 19.3 | 0.00 | 0.00 | 0.33 | 59 | 958.2 |
| 20260505172913 | 20 | 186 | 0.0 | 19.3 | 0.00 | 0.00 | 0.33 | 60 | 958.2 |
| 20260505172412 | 19 | 22 | 4.8 | 19.3 | 0.00 | 0.00 | 0.33 | 61 | 958.1 |
| 20260505171911 | 19 | 311 | 1.6 | 19.3 | 0.00 | 0.00 | 0.33 | 59 | 958.4 |
| 20260505171410 | 20 | 335 | 3.2 | 19.3 | 0.00 | 0.00 | 0.33 | 60 | 958.4 |
| 20260505170909 | 20 | 37 | 1.6 | 19.3 | 0.00 | 0.00 | 0.33 | 61 | 958.3 |
| 20260505170408 | 19 | 216 | 1.6 | 19.3 | 0.00 | 0.00 | 0.33 | 61 | 958.4 |
| 20260505165907 | 19 | 233 | 1.6 | 19.3 | 0.00 | 0.00 | 0.33 | 63 | 958.3 |
| 20260505165406 | 19 | 220 | 0.0 | 19.3 | 0.00 | 0.00 | 0.33 | 62 | 958.2 |
| 20260505164905 | 19 | 151 | 0.0 | 19.3 | 0.00 | 0.00 | 0.33 | 65 | 958.2 |
| 20260505163848 | 18 | 82 | 0.0 | 19.3 | 0.00 | 0.00 | 0.33 | 71 | 958.1 |
| 20260505163347 | 18 | 87 | 0.0 | 19.3 | 0.00 | 0.00 | 0.33 | 74 | 958.1 |
| 20260505162846 | 18 | 37 | 0.0 | 19.3 | 0.00 | 0.00 | 0.33 | 75 | 958.0 |
| 20260505162345 | 17 | 289 | 0.0 | 19.3 | 0.00 | 0.00 | 0.33 | 79 | 958.3 |
| 20260505161844 | 17 | 287 | 0.0 | 19.3 | 0.00 | 0.00 | 0.33 | 79 | 958.2 |
| 20260505161343 | 17 | 347 | 0.0 | 19.3 | 0.00 | 0.00 | 0.33 | 80 | 958.3 |
| 20260505160842 | 17 | 347 | 0.0 | 19.3 | 0.00 | 0.00 | 0.33 | 80 | 958.4 |
| 20260505160341 | 17 | 347 | 0.0 | 19.3 | 0.00 | 0.00 | 0.33 | 80 | 958.5 |
| 20260505153306 | 17 | 221 | 0.0 | 19.3 | 0.00 | 0.00 | 0.33 | 79 | 958.0 |
| 20260505152805 | 17 | 227 | 0.0 | 19.3 | 0.00 | 0.00 | 0.33 | 77 | 957.8 |
| 20260505152305 | 16 | 251 | 0.0 | 19.3 | 0.00 | 0.00 | 0.33 | 79 | 957.8 |
| 20260505151246 | 16 | 238 | 0.0 | 19.3 | 0.00 | 0.00 | 0.33 | 82 | 958.1 |
| 20260505150746 | 16 | 238 | 0.0 | 19.3 | 0.00 | 0.00 | 0.33 | 84 | 957.8 |
| 20260505150245 | 16 | 238 | 0.0 | 19.3 | 0.00 | 0.00 | 0.33 | 84 | 957.7 |
| 20260505140217 | 15 | 97 | 0.0 | 19.3 | 0.00 | 0.00 | 0.33 | 87 | 957.2 |
| 20260505130135 | 15 | 63 | 1.6 | 19.3 | 0.03 | 0.00 | 0.33 | 92 | 956.9 |
| 20260505124632 | 15 | 81 | 1.6 | 19.3 | 0.03 | 0.00 | 0.33 | 91 | 956.6 |
| 20260505124131 | 15 | 93 | 1.6 | 19.3 | 0.05 | 0.00 | 0.33 | 91 | 956.6 |
| 20260505123631 | 15 | 102 | 1.6 | 19.3 | 0.05 | 0.00 | 0.33 | 91 | 956.8 |
| 20260505123130 | 15 | 89 | 0.0 | 19.3 | 0.05 | 0.00 | 0.33 | 91 | 956.7 |
| 20260505122629 | 15 | 89 | 0.0 | 19.3 | 0.05 | 0.00 | 0.33 | 90 | 956.5 |
| 20260505122128 | 15 | 89 | 0.0 | 19.3 | 0.05 | 0.00 | 0.33 | 90 | 956.5 |
| 20260505121627 | 15 | 89 | 0.0 | 19.3 | 0.05 | 0.00 | 0.33 | 90 | 956.7 |
| 20260505121126 | 15 | 89 | 0.0 | 19.3 | 0.03 | 0.00 | 0.28 | 90 | 956.5 |
| 20260505120625 | 15 | 89 | 0.0 | 19.3 | 0.03 | 0.00 | 0.28 | 89 | 956.3 |
| 20260505120124 | 15 | 89 | 0.0 | 19.3 | 0.03 | 0.00 | 0.28 | 89 | 956.5 |
| 20260505115623 | 15 | 89 | 0.0 | 19.3 | 0.03 | 0.00 | 0.28 | 88 | 956.4 |
| 20260505114050 | 15 | 60 | 1.6 | 19.3 | 0.00 | 0.00 | 0.25 | 89 | 956.1 |
| 20260505113549 | 15 | 65 | 1.6 | 19.3 | 0.00 | 0.00 | 0.25 | 89 | 956.1 |
| 20260505113048 | 15 | 84 | 1.6 | 19.3 | 0.00 | 0.00 | 0.25 | 89 | 956.7 |
| 20260505112547 | 15 | 141 | 0.0 | 19.3 | 0.00 | 0.00 | 0.25 | 89 | 956.7 |
| 20260505112047 | 14 | 71 | 0.0 | 19.3 | 0.00 | 0.00 | 0.25 | 89 | 956.6 |
| 20260505111546 | 14 | 87 | 0.0 | 19.3 | 0.00 | 0.00 | 0.25 | 90 | 956.5 |
| 20260505111045 | 14 | 91 | 6.4 | 19.3 | 0.00 | 0.00 | 0.25 | 90 | 956.5 |
| 20260505110544 | 14 | 68 | 3.2 | 19.3 | 0.00 | 0.00 | 0.25 | 90 | 956.7 |
| 20260505102006 | 15 | 73 | 1.6 | 19.3 | 0.08 | 0.00 | 0.23 | 91 | 956.9 |
| 20260505101505 | 15 | 69 | 1.6 | 19.3 | 0.08 | 0.00 | 0.23 | 91 | 957.4 |
| 20260505101004 | 14 | 65 | 6.4 | 19.3 | 0.08 | 0.00 | 0.23 | 91 | 957.7 |
| 20260505100503 | 14 | 78 | 4.8 | 19.3 | 0.08 | 0.00 | 0.23 | 92 | 957.6 |
| 20260505100002 | 14 | 75 | 6.4 | 19.3 | 0.08 | 0.00 | 0.23 | 92 | 957.7 |
| 20260505095501 | 14 | 80 | 6.4 | 19.3 | 0.08 | 0.00 | 0.23 | 92 | 957.6 |
| 20260505095000 | 14 | 63 | 3.2 | 19.3 | 0.05 | 0.00 | 0.20 | 92 | 957.8 |
| 20260505093427 | 15 | 44 | 4.8 | 19.3 | 0.05 | 0.00 | 0.20 | 92 | 957.7 |